Date,TemperatureHighF,TemperatureAvgF,TemperatureLowF,DewpointHighF,DewpointAvgF,DewpointLowF,HumidityHigh,HumidityAvg,HumidityLow,PressureMaxIn,PressureMinIn,WindSpeedMaxMPH,WindSpeedAvgMPH,GustSpeedMaxMPH,PrecipitationSumIn
2013-2-1,25,19,14,16,5,-2,67,54,47,30.22,29.61,14,5,33,0.01
2013-2-2,22,16,8,14,5,-4,89,64,42,30.38,30.21,18,3,39,0.00
2013-2-3,28,17,4,13,9,1,90,74,47,30.27,29.93,6,0,11,0.00
2013-2-4,23,18,10,13,5,-5,85,60,35,30.09,29.88,12,3,27,0.00
2013-2-5,27,13,3,7,-3,-9,70,48,25,30.22,30.09,10,1,21,0.00
2013-2-6,30,19,12,20,8,-13,88,63,29,30.48,30.14,10,2,24,0.00
2013-2-7,23,14,8,2,-7,-12,57,40,22,30.77,30.49,10,1,20,0.00
2013-2-8,18,14,10,14,9,-6,89,80,42,30.76,30.19,9,1,19,0.00
2013-2-9,17,14,11,14,8,3,89,78,57,30.41,30.04,13,6,32,0.00
2013-2-10,38,20,4,11,3,-3,81,52,19,30.59,30.40,6,1,22,0.00
2013-2-11,26,18,6,24,15,3,94,88,66,30.58,29.82,1,0,4,0.00
2013-2-12,39,35,25,32,27,24,95,74,61,29.98,29.77,16,5,45,0.21
2013-2-13,39,33,26,25,22,19,81,65,50,30.01,29.93,10,3,23,0.03
2013-2-14,40,29,23,22,20,18,85,69,45,30.20,29.91,6,0,12,0.01
2013-2-15,45,33,20,28,23,17,89,68,47,30.20,30.07,7,1,15,0.00
2013-2-16,37,30,24,27,20,6,92,67,46,30.14,30.00,7,2,13,0.00
2013-2-17,24,20,15,10,4,-4,66,51,33,29.99,29.49,15,7,38,0.00
2013-2-18,26,20,11,4,-2,-8,58,39,22,30.25,29.68,17,7,40,0.00
2013-2-19,39,26,8,27,11,-1,94,58,20,30.35,29.79,6,1,11,0.00
2013-2-20,32,28,25,28,20,14,95,71,56,29.85,29.65,13,4,31,0.00
2013-2-21,28,23,17,19,11,3,76,61,52,30.42,29.85,18,6,34,0.00
2013-2-22,40,29,16,22,19,13,89,67,41,30.63,30.42,7,1,16,0.00
2013-2-23,32,29,25,29,25,20,95,87,77,30.54,30.21,1,0,4,0.00
2013-2-24,34,30,28,31,29,27,95,93,88,30.21,29.98,3,0,6,0.00
2013-2-25,41,31,22,35,29,20,96,92,80,30.45,30.10,4,0,11,0.39
2013-2-26,39,31,25,32,28,24,95,87,67,30.57,30.44,3,0,6,0.02
2013-2-27,33,30,27,30,28,25,95,92,84,30.45,29.93,10,1,18,0.01
2013-2-28,44,35,27,39,33,26,96,92,79,29.93,29.74,2,0,6,0.53